TAM3119 SBGR-SBCG

Flight info

Callsign TAM3119
Flight time 1h 40m
Altitude 34000
Route DCT EGEVA UM415 FIGOS DCT
Aircraft A320/M-SDE3FGHIRWY/LB1

Departure

Time 2026-05-04 14:56
Airport São Paulo/Guarulhos–Governor André Franco Montoro International Airport (SBGR)

Arrival

Time 2026-05-04 16:37
Airport Campo Grande Airport (SBCG)
Time Latitude Longitude Altitude Speed Heading
2026-05-04 14:33 -23.42793 -46.48065 2470 ft 0 kts 84°
2026-05-04 14:48 -23.42795 -46.48090 2470 ft 4 kts 90°
2026-05-04 14:49 -23.42794 -46.48119 2470 ft 4 kts 101°
2026-05-04 14:49 -23.42785 -46.48146 2468 ft 4 kts 129°
2026-05-04 14:49 -23.42771 -46.48157 2470 ft 1 kts 174°
2026-05-04 14:49 -23.42767 -46.48158 2469 ft 0 kts 174°
2026-05-04 14:51 -23.42771 -46.48157 2470 ft 3 kts 173°
2026-05-04 14:51 -23.42817 -46.48151 2468 ft 10 kts 173°
2026-05-04 14:52 -23.42895 -46.48143 2468 ft 11 kts 173°
2026-05-04 14:52 -23.42962 -46.48134 2470 ft 9 kts 175°
2026-05-04 14:52 -23.43024 -46.48130 2469 ft 10 kts 176°
2026-05-04 14:52 -23.43099 -46.48127 2468 ft 12 kts 194°
2026-05-04 14:53 -23.43139 -46.48204 2469 ft 12 kts 255°
2026-05-04 14:53 -23.43158 -46.48284 2472 ft 10 kts 253°
2026-05-04 14:53 -23.43177 -46.48353 2469 ft 9 kts 252°
2026-05-04 14:53 -23.43215 -46.48388 2469 ft 6 kts 184°
2026-05-04 14:54 -23.43251 -46.48380 2470 ft 4 kts 167°
2026-05-04 14:54 -23.43271 -46.48373 2469 ft 2 kts 163°
2026-05-04 14:54 -23.43277 -46.48371 2472 ft 1 kts 163°
2026-05-04 14:54 -23.43303 -46.48365 2469 ft 4 kts 168°
2026-05-04 14:55 -23.43336 -46.48355 2472 ft 7 kts 164°
2026-05-04 14:55 -23.43401 -46.48326 2475 ft 13 kts 152°
2026-05-04 14:55 -23.43395 -46.48219 2472 ft 21 kts 71°
2026-05-04 14:55 -23.43286 -46.47809 2470 ft 90 kts 73°
2026-05-04 14:56 -23.43051 -46.46946 2471 ft 145 kts 73°
2026-05-04 14:56 -23.42720 -46.45765 2680 ft 174 kts 72°
2026-05-04 14:56 -23.42356 -46.44465 3306 ft 184 kts 72°
2026-05-04 14:56 -23.41970 -46.43122 3859 ft 193 kts 70°
2026-05-04 14:57 -23.41551 -46.41657 4118 ft 212 kts 71°
2026-05-04 14:57 -23.41077 -46.40017 4241 ft 244 kts 72°
2026-05-04 14:57 -23.40548 -46.38144 4580 ft 269 kts 71°
2026-05-04 14:57 -23.40130 -46.36131 5315 ft 277 kts 85°
2026-05-04 14:58 -23.40386 -46.34020 6104 ft 287 kts 103°
2026-05-04 14:58 -23.41013 -46.31931 6927 ft 293 kts 110°
2026-05-04 14:58 -23.41768 -46.29859 7715 ft 296 kts 112°
2026-05-04 14:58 -23.42562 -46.27780 8489 ft 299 kts 115°
2026-05-04 14:59 -23.43787 -46.25966 8964 ft 299 kts 144°
2026-05-04 14:59 -23.45661 -46.25073 9324 ft 297 kts 176°
2026-05-04 14:59 -23.49722 -46.25632 10656 ft 306 kts 193°
2026-05-04 15:00 -23.51852 -46.26235 10869 ft 325 kts 205°
2026-05-04 15:00 -23.53829 -46.27473 11402 ft 330 kts 219°
2026-05-04 15:00 -23.55452 -46.29244 12081 ft 332 kts 234°
2026-05-04 15:01 -23.57185 -46.33882 13513 ft 336 kts 257°
2026-05-04 15:01 -23.57680 -46.36386 14210 ft 338 kts 257°
2026-05-04 15:01 -23.58176 -46.38900 14785 ft 341 kts 257°
2026-05-04 15:01 -23.58679 -46.41436 15383 ft 344 kts 257°
2026-05-04 15:02 -23.59187 -46.43992 15958 ft 347 kts 257°
2026-05-04 15:02 -23.59696 -46.46570 16183 ft 348 kts 257°
2026-05-04 15:02 -23.60205 -46.49148 16250 ft 348 kts 257°
2026-05-04 15:02 -23.60716 -46.51726 16269 ft 347 kts 257°
2026-05-04 15:03 -23.61178 -46.54323 16665 ft 351 kts 259°
2026-05-04 15:03 -23.61577 -46.56953 17283 ft 353 kts 260°
2026-05-04 15:03 -23.61947 -46.59605 17854 ft 355 kts 261°
2026-05-04 15:03 -23.62313 -46.62282 18412 ft 358 kts 261°
2026-05-04 15:04 -23.62850 -46.64940 18907 ft 360 kts 251°
2026-05-04 15:04 -23.63885 -46.67428 19375 ft 362 kts 239°
2026-05-04 15:04 -23.65238 -46.69756 19865 ft 364 kts 238°
2026-05-04 15:04 -23.66602 -46.72092 20355 ft 366 kts 238°
2026-05-04 15:05 -23.67913 -46.74474 20829 ft 368 kts 244°
2026-05-04 15:05 -23.68718 -46.77126 21279 ft 371 kts 259°
2026-05-04 15:05 -23.68853 -46.79941 21716 ft 376 kts 273°
2026-05-04 15:05 -23.68293 -46.82745 22160 ft 383 kts 287°
2026-05-04 15:06 -23.67041 -46.85337 22600 ft 391 kts 300°
2026-05-04 15:06 -23.65489 -46.87793 22999 ft 394 kts 300°
2026-05-04 15:06 -23.63929 -46.90252 23400 ft 396 kts 300°
2026-05-04 15:07 -23.60772 -46.95230 24164 ft 401 kts 300°
2026-05-04 15:07 -23.59181 -46.97734 24531 ft 403 kts 300°
2026-05-04 15:07 -23.57585 -47.00244 24898 ft 404 kts 300°
2026-05-04 15:07 -23.55982 -47.02766 25256 ft 405 kts 300°
2026-05-04 15:08 -23.54372 -47.05292 25626 ft 406 kts 300°
2026-05-04 15:08 -23.52759 -47.07824 25989 ft 407 kts 300°
2026-05-04 15:08 -23.51162 -47.10333 26341 ft 409 kts 300°
2026-05-04 15:08 -23.49517 -47.12917 26690 ft 410 kts 300°
2026-05-04 15:09 -23.47891 -47.15475 27051 ft 411 kts 300°
2026-05-04 15:09 -23.46258 -47.18045 27387 ft 413 kts 300°
2026-05-04 15:09 -23.44620 -47.20619 27729 ft 414 kts 300°
2026-05-04 15:10 -23.41328 -47.25797 28381 ft 418 kts 300°
2026-05-04 15:10 -23.39692 -47.28363 28718 ft 419 kts 300°
2026-05-04 15:10 -23.36354 -47.33597 29380 ft 422 kts 299°
2026-05-04 15:11 -23.34675 -47.36225 29700 ft 424 kts 299°
2026-05-04 15:11 -23.32989 -47.38858 29982 ft 425 kts 299°
2026-05-04 15:11 -23.31297 -47.41501 30254 ft 427 kts 299°
2026-05-04 15:11 -23.29598 -47.44159 30497 ft 428 kts 299°
2026-05-04 15:12 -23.27896 -47.46818 30742 ft 429 kts 299°
2026-05-04 15:12 -23.26183 -47.49487 30996 ft 431 kts 299°
2026-05-04 15:12 -23.24472 -47.52155 31298 ft 430 kts 299°
2026-05-04 15:12 -23.22763 -47.54815 31646 ft 428 kts 299°
2026-05-04 15:13 -23.21063 -47.57464 32000 ft 426 kts 299°
2026-05-04 15:13 -23.19436 -47.60141 32351 ft 421 kts 293°
2026-05-04 15:13 -23.18266 -47.63018 32643 ft 413 kts 283°
2026-05-04 15:13 -23.17613 -47.66023 32971 ft 406 kts 274°
2026-05-04 15:14 -23.17415 -47.69070 33295 ft 403 kts 269°
2026-05-04 15:14 -23.17302 -47.72107 33627 ft 402 kts 270°
2026-05-04 15:14 -23.17224 -47.74154 33851 ft 401 kts 270°
2026-05-04 15:14 -23.17072 -47.78156 34147 ft 400 kts 270°
2026-05-04 15:15 -23.16960 -47.81144 34177 ft 393 kts 269°
2026-05-04 15:15 -23.16777 -47.86083 34179 ft 389 kts 269°
2026-05-04 15:16 -23.16452 -47.94891 34175 ft 389 kts 269°
2026-05-04 15:17 -23.16111 -48.03693 34178 ft 389 kts 269°
2026-05-04 15:17 -23.15755 -48.12492 34181 ft 389 kts 269°
2026-05-04 15:18 -23.15521 -48.18359 34179 ft 388 kts 269°
2026-05-04 15:19 -23.15182 -48.27100 34153 ft 387 kts 269°
2026-05-04 15:19 -23.14822 -48.35861 34161 ft 387 kts 269°
2026-05-04 15:20 -23.14578 -48.41703 34165 ft 387 kts 269°
2026-05-04 15:20 -23.14342 -48.47538 34170 ft 386 kts 269°
2026-05-04 15:21 -23.14100 -48.53373 34166 ft 387 kts 269°
2026-05-04 15:21 -23.13047 -48.59129 34164 ft 395 kts 284°
2026-05-04 15:22 -23.12145 -48.61948 34163 ft 395 kts 284°
2026-05-04 15:22 -23.09454 -48.70419 34160 ft 395 kts 283°
2026-05-04 15:23 -23.07663 -48.76067 34140 ft 396 kts 283°
2026-05-04 15:23 -23.05865 -48.81717 34151 ft 396 kts 283°
2026-05-04 15:24 -23.02269 -48.93018 34162 ft 396 kts 283°
2026-05-04 15:25 -23.00462 -48.98669 34171 ft 396 kts 283°
2026-05-04 15:26 -22.97754 -49.07137 34169 ft 396 kts 283°
2026-05-04 15:26 -22.95044 -49.15603 34136 ft 396 kts 283°
2026-05-04 15:27 -22.92067 -49.23985 34148 ft 398 kts 286°
2026-05-04 15:28 -22.88971 -49.32320 34142 ft 396 kts 284°
2026-05-04 15:29 -22.86387 -49.40796 34138 ft 394 kts 282°
2026-05-04 15:30 -22.80042 -49.60435 34113 ft 396 kts 284°
2026-05-04 15:31 -22.77209 -49.68846 34121 ft 396 kts 283°
2026-05-04 15:32 -22.72481 -49.82890 34124 ft 397 kts 284°
2026-05-04 15:34 -22.67727 -49.96926 34103 ft 397 kts 284°
2026-05-04 15:34 -22.64869 -50.05346 34113 ft 397 kts 284°
2026-05-04 15:35 -22.62013 -50.13769 34114 ft 397 kts 284°
2026-05-04 15:36 -22.59173 -50.22185 34115 ft 397 kts 284°
2026-05-04 15:36 -22.57267 -50.27793 34108 ft 397 kts 284°
2026-05-04 15:37 -22.55333 -50.33392 34110 ft 398 kts 284°
2026-05-04 15:37 -22.53396 -50.39000 34108 ft 398 kts 284°
2026-05-04 15:38 -22.51465 -50.44613 34113 ft 398 kts 284°
2026-05-04 15:38 -22.49529 -50.50221 34116 ft 398 kts 284°
2026-05-04 15:39 -22.47586 -50.55820 34112 ft 398 kts 284°
2026-05-04 15:40 -22.44673 -50.64226 34106 ft 398 kts 284°
2026-05-04 15:40 -22.42731 -50.69828 34090 ft 398 kts 284°
2026-05-04 15:41 -22.40788 -50.75429 34090 ft 398 kts 284°
2026-05-04 15:41 -22.38841 -50.81030 34100 ft 398 kts 284°
2026-05-04 15:42 -22.36894 -50.86629 34099 ft 398 kts 284°
2026-05-04 15:42 -22.34952 -50.92185 34100 ft 398 kts 284°
2026-05-04 15:43 -22.32998 -50.97776 34099 ft 398 kts 284°
2026-05-04 15:43 -22.31041 -51.03364 34098 ft 398 kts 284°
2026-05-04 15:44 -22.29089 -51.08949 34102 ft 397 kts 284°
2026-05-04 15:44 -22.27138 -51.14530 34089 ft 397 kts 285°
2026-05-04 15:45 -22.25176 -51.20115 34107 ft 398 kts 285°
2026-05-04 15:45 -22.23212 -51.25693 34115 ft 398 kts 285°
2026-05-04 15:46 -22.21246 -51.31280 34128 ft 398 kts 285°
2026-05-04 15:46 -22.19276 -51.36862 34127 ft 398 kts 285°
2026-05-04 15:47 -22.17309 -51.42440 34126 ft 398 kts 285°
2026-05-04 15:47 -22.15374 -51.48035 34128 ft 398 kts 284°
2026-05-04 15:48 -22.13465 -51.53639 34105 ft 398 kts 284°
2026-05-04 15:48 -22.10586 -51.62049 34083 ft 399 kts 285°
2026-05-04 15:49 -22.08662 -51.67655 34084 ft 399 kts 285°
2026-05-04 15:49 -22.06734 -51.73257 34085 ft 399 kts 285°
2026-05-04 15:50 -22.04798 -51.78863 34087 ft 399 kts 285°
2026-05-04 15:50 -22.02863 -51.84462 34083 ft 399 kts 285°
2026-05-04 15:51 -22.00920 -51.90060 34078 ft 399 kts 285°
2026-05-04 15:51 -21.98979 -51.95658 34069 ft 399 kts 285°
2026-05-04 15:52 -21.97043 -52.01257 34068 ft 399 kts 285°
2026-05-04 15:52 -21.95103 -52.06853 34069 ft 399 kts 285°
2026-05-04 15:53 -21.93157 -52.12455 34073 ft 399 kts 285°
2026-05-04 15:53 -21.91210 -52.18057 34072 ft 399 kts 285°
2026-05-04 15:54 -21.89259 -52.23655 34073 ft 399 kts 285°
2026-05-04 15:54 -21.87305 -52.29255 34075 ft 399 kts 286°
2026-05-04 15:55 -21.85349 -52.34850 34052 ft 399 kts 286°
2026-05-04 15:55 -21.83398 -52.40442 34064 ft 399 kts 286°
2026-05-04 15:56 -21.81438 -52.46034 34069 ft 399 kts 286°
2026-05-04 15:56 -21.79469 -52.51628 34072 ft 399 kts 286°
2026-05-04 15:57 -21.77516 -52.57179 34073 ft 400 kts 286°
2026-05-04 15:57 -21.75551 -52.62772 34073 ft 400 kts 286°
2026-05-04 15:58 -21.73578 -52.68362 34072 ft 400 kts 286°
2026-05-04 15:58 -21.71606 -52.73955 34073 ft 400 kts 286°
2026-05-04 15:59 -21.69636 -52.79548 34055 ft 400 kts 287°
2026-05-04 15:59 -21.67662 -52.85144 34060 ft 401 kts 287°
2026-05-04 16:00 -21.65677 -52.90751 34062 ft 402 kts 287°
2026-05-04 16:00 -21.64011 -52.95453 34066 ft 402 kts 287°
2026-05-04 16:01 -21.62013 -53.01065 34063 ft 402 kts 287°
2026-05-04 16:01 -21.60013 -53.06684 34063 ft 402 kts 287°
2026-05-04 16:02 -21.58021 -53.12303 34062 ft 403 kts 287°
2026-05-04 16:03 -21.55019 -53.20738 33979 ft 403 kts 287°
2026-05-04 16:03 -21.54024 -53.23523 33711 ft 396 kts 287°
2026-05-04 16:03 -21.53039 -53.26274 33456 ft 393 kts 287°
2026-05-04 16:03 -21.52060 -53.29009 33197 ft 392 kts 287°
2026-05-04 16:04 -21.51087 -53.31735 32940 ft 390 kts 286°
2026-05-04 16:04 -21.49151 -53.37162 32431 ft 388 kts 287°
2026-05-04 16:04 -21.48184 -53.39861 32183 ft 387 kts 287°
2026-05-04 16:05 -21.47219 -53.42555 31938 ft 386 kts 287°
2026-05-04 16:05 -21.46270 -53.45202 31697 ft 385 kts 287°
2026-05-04 16:05 -21.43664 -53.50244 31212 ft 391 kts 300°
2026-05-04 16:06 -21.42093 -53.52619 30981 ft 390 kts 300°
2026-05-04 16:06 -21.37927 -53.58934 30063 ft 384 kts 300°
2026-05-04 16:07 -21.35888 -53.62020 29391 ft 381 kts 300°
2026-05-04 16:07 -21.31362 -53.68883 28010 ft 371 kts 300°
2026-05-04 16:08 -21.29875 -53.71133 27556 ft 368 kts 301°
2026-05-04 16:08 -21.25465 -53.77798 26186 ft 363 kts 301°
2026-05-04 16:09 -21.22550 -53.82203 25238 ft 362 kts 301°
2026-05-04 16:09 -21.19636 -53.86603 24259 ft 363 kts 301°
2026-05-04 16:10 -21.16709 -53.91018 23202 ft 364 kts 302°
2026-05-04 16:11 -21.12323 -53.97622 21715 ft 361 kts 302°
2026-05-04 16:11 -21.10869 -53.99810 21222 ft 360 kts 302°
2026-05-04 16:12 -21.06525 -54.06351 19802 ft 359 kts 303°
2026-05-04 16:12 -21.02208 -54.12829 18626 ft 351 kts 304°
2026-05-04 16:13 -20.99378 -54.17065 17726 ft 348 kts 304°
2026-05-04 16:13 -20.96577 -54.21268 16841 ft 345 kts 304°
2026-05-04 16:14 -20.93812 -54.25422 16036 ft 341 kts 304°
2026-05-04 16:14 -20.91077 -54.29520 15306 ft 335 kts 304°
2026-05-04 16:15 -20.87290 -54.35742 14106 ft 333 kts 300°
2026-05-04 16:16 -20.84983 -54.40023 13291 ft 331 kts 300°
2026-05-04 16:16 -20.81527 -54.46331 12136 ft 325 kts 302°
2026-05-04 16:17 -20.79264 -54.50395 11755 ft 308 kts 302°
2026-05-04 16:18 -20.76331 -54.56203 11213 ft 292 kts 283°
2026-05-04 16:18 -20.76315 -54.58349 10972 ft 290 kts 259°
2026-05-04 16:19 -20.80396 -54.62493 10268 ft 281 kts 187°
2026-05-04 16:19 -20.83998 -54.61563 9898 ft 265 kts 139°
2026-05-04 16:20 -20.87168 -54.56948 9671 ft 258 kts 117°
2026-05-04 16:20 -20.88977 -54.53638 9675 ft 258 kts 117°
2026-05-04 16:21 -20.90050 -54.48308 9673 ft 248 kts 69°
2026-05-04 16:22 -20.88073 -54.45441 9673 ft 243 kts 31°
2026-05-04 16:22 -20.83226 -54.45058 9673 ft 245 kts 335°
2026-05-04 16:23 -20.79837 -54.49167 9677 ft 253 kts 304°
2026-05-04 16:24 -20.76270 -54.55683 9478 ft 265 kts 304°
2026-05-04 16:25 -20.74371 -54.59109 8682 ft 269 kts 303°
2026-05-04 16:26 -20.70542 -54.65978 7114 ft 270 kts 303°
2026-05-04 16:26 -20.67660 -54.71123 5904 ft 269 kts 304°
2026-05-04 16:27 -20.65463 -54.74092 5659 ft 242 kts 315°
2026-05-04 16:28 -20.62207 -54.77888 5347 ft 228 kts 315°
2026-05-04 16:28 -20.58280 -54.78464 5070 ft 222 kts 37°
2026-05-04 16:29 -20.53547 -54.74317 5078 ft 215 kts
2026-05-04 16:30 -20.50206 -54.76958 5081 ft 228 kts 298°
2026-05-04 16:31 -20.49055 -54.80140 5078 ft 236 kts 278°
2026-05-04 16:31 -20.51609 -54.84074 4770 ft 239 kts 194°
2026-05-04 16:32 -20.55711 -54.82210 3981 ft 200 kts 121°
2026-05-04 16:33 -20.56643 -54.79793 3781 ft 162 kts 90°
2026-05-04 16:33 -20.56475 -54.77508 3641 ft 154 kts 66°
2026-05-04 16:34 -20.55495 -54.75639 3493 ft 142 kts 44°
2026-05-04 16:34 -20.54768 -54.74914 3475 ft 145 kts 37°
2026-05-04 16:35 -20.52518 -54.72735 2995 ft 145 kts 42°
2026-05-04 16:35 -20.50286 -54.70579 2459 ft 147 kts 40°
2026-05-04 16:36 -20.49536 -54.69849 2238 ft 142 kts 43°
2026-05-04 16:36 -20.48064 -54.68425 1889 ft 141 kts 38°
2026-05-04 16:37 -20.46807 -54.67215 1836 ft 79 kts 43°
2026-05-04 16:37 -20.46524 -54.66944 1839 ft 30 kts 41°
2026-05-04 16:37 -20.46271 -54.66700 1843 ft 23 kts 42°
2026-05-04 16:38 -20.46038 -54.66641 1846 ft 18 kts 336°
2026-05-04 16:39 -20.45838 -54.66829 1846 ft 13 kts 266°
2026-05-04 16:39 -20.45789 -54.66859 1846 ft 0 kts 354°